Date,TemperatureHighF,TemperatureAvgF,TemperatureLowF,DewpointHighF,DewpointAvgF,DewpointLowF,HumidityHigh,HumidityAvg,HumidityLow,PressureMaxIn,PressureMinIn,WindSpeedMaxMPH,WindSpeedAvgMPH,GustSpeedMaxMPH,PrecipitationSumIn
2013-2-1,55.0,39.2,22.3,21.9,19.3,14.1,84,49,22,30.48,30.34,10,2,14,0.00
2013-2-2,55.5,42.2,29.8,22.0,19.3,14.2,65,42,22,30.54,30.42,5,1,9,0.00
2013-2-3,52.7,41.8,27.1,29.2,20.1,14.7,66,43,24,30.46,30.13,6,1,9,0.00
2013-2-4,56.6,43.7,30.8,28.8,24.6,18.8,80,49,24,30.24,30.09,7,3,13,0.00
2013-2-5,59.9,43.6,33.1,23.2,19.4,14.3,63,40,17,30.24,30.08,5,1,9,0.00
2013-2-6,59.7,44.3,26.9,27.4,20.9,17.0,68,41,26,30.13,29.96,8,2,12,0.00
2013-2-7,56.1,44.2,32.1,25.9,21.5,12.8,71,43,18,30.26,30.10,7,2,15,0.00
2013-2-8,57.5,45.7,30.8,23.2,20.2,15.4,64,39,24,30.22,29.84,13,4,19,0.00
2013-2-9,48.7,38.6,30.1,22.5,13.3,3.3,58,37,20,29.98,29.68,16,6,23,0.00
2013-2-10,43.1,33.3,27.0,20.9,14.0,9.2,68,47,25,30.18,29.98,7,2,10,0.00
2013-2-11,45.9,32.8,19.6,22.4,15.9,1.2,85,55,17,30.26,30.11,9,3,16,0.00
2013-2-12,40.6,31.4,22.9,22.6,12.5,3.3,76,49,21,30.42,30.16,10,4,15,0.00
2013-2-13,46.9,34.7,23.8,17.5,13.0,10.2,56,42,26,30.44,30.26,10,4,15,0.00
2013-2-14,50.8,38.5,26.7,19.5,17.4,13.7,66,44,23,30.39,30.23,11,4,16,0.00
2013-2-15,50.8,39.0,24.4,22.8,12.7,1.1,75,39,13,30.55,30.38,14,3,20,0.00
2013-2-16,58.0,41.9,27.2,13.1,7.5,-3.8,51,27,9,30.62,30.28,7,2,12,0.00
2013-2-17,60.6,42.7,23.8,7.8,3.4,-2.4,47,23,8,30.30,29.83,8,3,13,0.00
2013-2-18,51.4,41.6,30.4,16.9,-4.2,-24.1,46,18,4,30.21,29.94,10,4,15,0.00
2013-2-19,58.7,36.8,21.2,34.1,9.1,-10.5,65,34,14,30.24,29.87,15,4,21,0.00
2013-2-20,49.7,43.0,34.8,34.4,27.3,13.0,76,56,24,29.88,29.55,13,5,21,0.00
2013-2-21,45.9,35.0,26.7,27.0,23.2,18.3,92,65,34,30.08,29.64,8,3,13,0.09
2013-2-22,43.2,34.6,28.6,23.2,20.3,11.4,71,57,29,30.25,30.06,12,3,15,0.00
2013-2-23,48.1,35.9,20.7,17.9,12.5,7.3,69,40,22,30.30,29.90,8,2,11,0.00
2013-2-24,41.5,33.8,26.9,24.6,15.8,3.2,91,51,24,30.08,29.78,13,6,21,0.00
2013-2-25,48.4,35.1,23.7,24.6,11.9,0.6,91,44,15,30.33,30.08,9,3,15,0.01
2013-2-26,46.4,35.1,25.5,15.2,6.5,-9.3,62,34,12,30.29,29.99,16,5,22,0.00
2013-2-27,45.5,32.7,19.8,9.6,5.9,0.4,61,35,16,30.52,30.29,7,1,7,0.00
2013-2-28,53.0,38.0,25.2,8.1,3.9,-5.5,41,25,9,30.57,30.41,11,4,15,0.00